Time,TemperatureF,DewpointF,PressureIn,WindDirection,WindDirectionDegrees,WindSpeedMPH,WindSpeedGustMPH,Humidity,HourlyPrecipIn,Conditions,Clouds,dailyrainin,SoftwareType,DateUTC
2013-04-02 00:03:00,36.5,15.0,29.98,North,349,6.0,6.0,41,0.00,,,0.00,weatherlink.com 1.10,2013-04-02 04:03:00,
2013-04-02 00:18:00,36.2,15.0,29.98,NW,305,2.0,9.0,42,0.00,,,0.00,weatherlink.com 1.10,2013-04-02 04:18:00,
2013-04-02 00:33:00,35.5,15.0,29.99,WNW,302,0.0,2.0,44,0.00,,,0.00,weatherlink.com 1.10,2013-04-02 04:33:00,
2013-04-02 00:47:00,35.0,15.0,29.99,NW,308,1.0,4.0,44,0.00,,,0.00,weatherlink.com 1.10,2013-04-02 04:47:00,
2013-04-02 01:03:00,34.4,15.0,30.00,NW,308,0.0,2.0,46,0.00,,,0.00,weatherlink.com 1.10,2013-04-02 05:03:00,
2013-04-02 01:18:00,33.5,15.0,30.00,NW,308,0.0,0.0,47,0.00,,,0.00,weatherlink.com 1.10,2013-04-02 05:18:00,
2013-04-02 01:33:00,33.1,15.0,30.00,NW,308,0.0,1.0,47,0.00,,,0.00,weatherlink.com 1.10,2013-04-02 05:33:00,
2013-04-02 01:48:00,33.2,15.0,30.00,NW,308,0.0,2.0,48,0.00,,,0.00,weatherlink.com 1.10,2013-04-02 05:48:00,
2013-04-02 02:03:00,32.1,17.0,30.00,NW,308,0.0,0.0,53,0.00,,,0.00,weatherlink.com 1.10,2013-04-02 06:03:00,
2013-04-02 02:18:00,31.3,18.0,30.00,NW,308,0.0,0.0,57,0.00,,,0.00,weatherlink.com 1.10,2013-04-02 06:18:00,
2013-04-02 02:33:00,30.0,18.0,30.00,NW,308,0.0,0.0,62,0.00,,,0.00,weatherlink.com 1.10,2013-04-02 06:33:00,
2013-04-02 02:48:00,29.9,18.0,30.00,NW,308,0.0,0.0,62,0.00,,,0.00,weatherlink.com 1.10,2013-04-02 06:48:00,
2013-04-02 03:03:00,30.5,18.0,30.00,NW,308,0.0,1.0,61,0.00,,,0.00,weatherlink.com 1.10,2013-04-02 07:03:00,
2013-04-02 03:18:00,30.2,19.0,30.00,West,275,1.0,3.0,63,0.00,,,0.00,weatherlink.com 1.10,2013-04-02 07:18:00,
2013-04-02 03:33:00,31.0,16.0,30.00,WNW,290,0.0,1.0,55,0.00,,,0.00,weatherlink.com 1.10,2013-04-02 07:33:00,
2013-04-02 03:48:00,31.4,16.0,30.00,NW,304,0.0,3.0,54,0.00,,,0.00,weatherlink.com 1.10,2013-04-02 07:48:00,
2013-04-02 04:03:00,31.6,16.0,30.00,West,261,0.0,2.0,53,0.00,,,0.00,weatherlink.com 1.10,2013-04-02 08:03:00,
2013-04-02 04:18:00,32.1,16.0,30.00,WNW,294,0.0,4.0,52,0.00,,,0.00,weatherlink.com 1.10,2013-04-02 08:18:00,
2013-04-02 04:33:00,32.4,16.0,30.00,WNW,284,0.0,6.0,52,0.00,,,0.00,weatherlink.com 1.10,2013-04-02 08:33:00,
2013-04-02 04:48:00,32.3,17.0,30.00,NW,316,0.0,5.0,53,0.00,,,0.00,weatherlink.com 1.10,2013-04-02 08:48:00,
2013-04-02 05:03:00,32.3,17.0,30.01,WNW,296,0.0,6.0,53,0.00,,,0.00,weatherlink.com 1.10,2013-04-02 09:03:00,
2013-04-02 05:18:00,31.9,16.0,30.01,WNW,292,1.0,2.0,53,0.00,,,0.00,weatherlink.com 1.10,2013-04-02 09:18:00,
2013-04-02 05:33:00,30.4,18.0,30.02,West,275,0.0,0.0,60,0.00,,,0.00,weatherlink.com 1.10,2013-04-02 09:33:00,
2013-04-02 05:48:00,29.5,19.0,30.02,West,275,0.0,0.0,64,0.00,,,0.00,weatherlink.com 1.10,2013-04-02 09:48:00,
2013-04-02 06:03:00,29.1,19.0,30.02,West,275,0.0,0.0,66,0.00,,,0.00,weatherlink.com 1.10,2013-04-02 10:03:00,
2013-04-02 06:18:00,28.3,19.0,30.02,West,275,0.0,0.0,69,0.00,,,0.00,weatherlink.com 1.10,2013-04-02 10:18:00,
2013-04-02 06:33:00,27.8,19.0,30.03,West,275,0.0,0.0,69,0.00,,,0.00,weatherlink.com 1.10,2013-04-02 10:33:00,
2013-04-02 06:48:00,28.0,18.0,30.03,West,275,0.0,0.0,66,0.00,,,0.00,weatherlink.com 1.10,2013-04-02 10:48:00,
2013-04-02 07:03:00,27.8,18.0,30.04,West,275,0.0,0.0,66,0.00,,,0.00,weatherlink.com 1.10,2013-04-02 11:03:00,
2013-04-02 07:18:00,28.7,18.0,30.05,West,275,0.0,0.0,64,0.00,,,0.00,weatherlink.com 1.10,2013-04-02 11:18:00,
2013-04-02 07:33:00,29.6,19.0,30.06,West,275,1.0,2.0,64,0.00,,,0.00,weatherlink.com 1.10,2013-04-02 11:33:00,
2013-04-02 07:48:00,30.5,20.0,30.07,WNW,290,2.0,10.0,66,0.00,,,0.00,weatherlink.com 1.10,2013-04-02 11:48:00,
2013-04-02 08:03:00,33.6,18.0,30.08,NNW,345,6.0,8.0,54,0.00,,,0.00,weatherlink.com 1.10,2013-04-02 12:03:00,
2013-04-02 08:18:00,34.4,17.0,30.08,WSW,245,4.0,14.0,50,0.00,,,0.00,weatherlink.com 1.10,2013-04-02 12:18:00,
2013-04-02 08:33:00,34.9,17.0,30.09,WSW,258,4.0,15.0,48,0.00,,,0.00,weatherlink.com 1.10,2013-04-02 12:33:00,
2013-04-02 08:48:00,35.0,16.0,30.09,NW,323,10.0,19.0,46,0.00,,,0.00,weatherlink.com 1.10,2013-04-02 12:48:00,
2013-04-02 09:03:00,35.2,16.0,30.09,NNW,327,12.0,17.0,46,0.00,,,0.00,weatherlink.com 1.10,2013-04-02 13:03:00,
2013-04-02 09:18:00,35.9,17.0,30.09,North,351,8.0,15.0,46,0.00,,,0.00,weatherlink.com 1.10,2013-04-02 13:18:00,
2013-04-02 09:33:00,35.7,16.0,30.10,West,262,9.0,22.0,44,0.00,,,0.00,weatherlink.com 1.10,2013-04-02 13:33:00,
2013-04-02 09:48:00,36.0,15.0,30.10,West,263,6.0,19.0,43,0.00,,,0.00,weatherlink.com 1.10,2013-04-02 13:48:00,
2013-04-02 10:03:00,36.8,17.0,30.09,WNW,292,10.0,19.0,44,0.00,,,0.00,weatherlink.com 1.10,2013-04-02 14:03:00,
2013-04-02 10:18:00,36.1,16.0,30.10,WNW,290,2.0,17.0,44,0.00,,,0.00,weatherlink.com 1.10,2013-04-02 14:18:00,
2013-04-02 10:33:00,36.6,17.0,30.10,NW,322,9.0,14.0,46,0.00,,,0.00,weatherlink.com 1.10,2013-04-02 14:33:00,
2013-04-02 10:48:00,36.3,18.0,30.10,West,273,4.0,14.0,48,0.00,,,0.00,weatherlink.com 1.10,2013-04-02 14:48:00,
2013-04-02 11:03:00,36.4,18.0,30.10,NW,321,11.0,15.0,48,0.00,,,0.00,weatherlink.com 1.10,2013-04-02 15:03:00,
2013-04-02 11:19:00,37.1,18.0,30.10,WNW,300,4.0,17.0,46,0.00,,,0.00,weatherlink.com 1.10,2013-04-02 15:19:00,
2013-04-02 11:33:00,37.0,17.0,30.10,West,265,8.0,20.0,45,0.00,,,0.00,weatherlink.com 1.10,2013-04-02 15:33:00,
2013-04-02 11:49:00,37.4,18.0,30.10,WSW,257,2.0,20.0,45,0.00,,,0.00,weatherlink.com 1.10,2013-04-02 15:49:00,
2013-04-02 12:04:00,37.9,17.0,30.10,NW,313,12.0,22.0,43,0.00,,,0.00,weatherlink.com 1.10,2013-04-02 16:04:00,
2013-04-02 12:19:00,38.3,16.0,30.09,WNW,288,6.0,21.0,41,0.00,,,0.00,weatherlink.com 1.10,2013-04-02 16:19:00,
2013-04-02 12:34:00,38.9,16.0,30.09,WSW,244,9.0,22.0,40,0.00,,,0.00,weatherlink.com 1.10,2013-04-02 16:34:00,
2013-04-02 12:49:00,38.6,16.0,30.09,WNW,288,10.0,18.0,40,0.00,,,0.00,weatherlink.com 1.10,2013-04-02 16:49:00,
2013-04-02 13:04:00,38.2,17.0,30.08,WNW,301,5.0,19.0,42,0.00,,,0.00,weatherlink.com 1.10,2013-04-02 17:04:00,
2013-04-02 13:19:00,40.0,16.0,30.08,WNW,298,11.0,19.0,38,0.00,,,0.00,weatherlink.com 1.10,2013-04-02 17:19:00,
2013-04-02 13:34:00,39.5,15.0,30.07,West,275,5.0,19.0,37,0.00,,,0.00,weatherlink.com 1.10,2013-04-02 17:34:00,
2013-04-02 13:49:00,39.8,17.0,30.07,WNW,286,5.0,20.0,39,0.00,,,0.00,weatherlink.com 1.10,2013-04-02 17:49:00,
2013-04-02 14:04:00,41.0,17.0,30.07,WNW,293,10.0,27.0,38,0.00,,,0.00,weatherlink.com 1.10,2013-04-02 18:04:00,
2013-04-02 14:19:00,41.3,17.0,30.07,WNW,283,10.0,19.0,37,0.00,,,0.00,weatherlink.com 1.10,2013-04-02 18:19:00,
2013-04-02 14:34:00,41.1,16.0,30.07,WNW,300,6.0,21.0,36,0.00,,,0.00,weatherlink.com 1.10,2013-04-02 18:34:00,
2013-04-02 14:49:00,40.5,16.0,30.06,NW,310,7.0,21.0,37,0.00,,,0.00,weatherlink.com 1.10,2013-04-02 18:49:00,
2013-04-02 15:04:00,41.6,15.0,30.06,WSW,242,8.0,18.0,34,0.00,,,0.00,weatherlink.com 1.10,2013-04-02 19:04:00,
2013-04-02 15:19:00,42.3,16.0,30.05,NNW,340,7.0,19.0,35,0.00,,,0.00,weatherlink.com 1.10,2013-04-02 19:19:00,
2013-04-02 15:34:00,42.3,16.0,30.04,West,281,12.0,23.0,35,0.00,,,0.00,weatherlink.com 1.10,2013-04-02 19:34:00,
2013-04-02 15:49:00,42.5,16.0,30.05,WSW,256,12.0,23.0,34,0.00,,,0.00,weatherlink.com 1.10,2013-04-02 19:49:00,
2013-04-02 16:04:00,43.0,16.0,30.05,NNW,327,6.0,24.0,33,0.00,,,0.00,weatherlink.com 1.10,2013-04-02 20:04:00,
2013-04-02 16:19:00,42.9,17.0,30.05,WSW,251,12.0,17.0,36,0.00,,,0.00,weatherlink.com 1.10,2013-04-02 20:19:00,
2013-04-02 16:34:00,42.9,15.0,30.05,West,277,9.0,17.0,32,0.00,,,0.00,weatherlink.com 1.10,2013-04-02 20:34:00,
2013-04-02 16:49:00,42.7,15.0,30.05,NW,313,9.0,17.0,32,0.00,,,0.00,weatherlink.com 1.10,2013-04-02 20:49:00,
2013-04-02 17:04:00,43.1,16.0,30.05,NW,314,8.0,22.0,34,0.00,,,0.00,weatherlink.com 1.10,2013-04-02 21:04:00,
2013-04-02 17:19:00,42.4,15.0,30.05,WNW,290,3.0,16.0,33,0.00,,,0.00,weatherlink.com 1.10,2013-04-02 21:19:00,
2013-04-02 17:34:00,42.9,15.0,30.06,West,259,8.0,21.0,33,0.00,,,0.00,weatherlink.com 1.10,2013-04-02 21:34:00,
2013-04-02 17:49:00,43.2,15.0,30.06,WNW,291,5.0,16.0,32,0.00,,,0.00,weatherlink.com 1.10,2013-04-02 21:49:00,
2013-04-02 18:04:00,42.5,14.0,30.07,West,264,8.0,19.0,31,0.00,,,0.00,weatherlink.com 1.10,2013-04-02 22:04:00,
2013-04-02 18:19:00,42.6,14.0,30.07,NW,305,5.0,15.0,32,0.00,,,0.00,weatherlink.com 1.10,2013-04-02 22:19:00,
2013-04-02 18:34:00,42.0,15.0,30.08,NNW,329,9.0,14.0,33,0.00,,,0.00,weatherlink.com 1.10,2013-04-02 22:34:00,
2013-04-02 18:49:00,41.8,14.0,30.08,NW,325,11.0,17.0,32,0.00,,,0.00,weatherlink.com 1.10,2013-04-02 22:49:00,
2013-04-02 19:04:00,41.3,15.0,30.09,WNW,297,4.0,17.0,34,0.00,,,0.00,weatherlink.com 1.10,2013-04-02 23:04:00,
2013-04-02 19:19:00,40.5,15.0,30.09,WNW,285,4.0,16.0,35,0.00,,,0.00,weatherlink.com 1.10,2013-04-02 23:19:00,
2013-04-02 19:34:00,40.0,14.0,30.10,West,268,8.0,13.0,34,0.00,,,0.00,weatherlink.com 1.10,2013-04-02 23:34:00,
2013-04-02 19:49:00,39.7,14.0,30.10,NNW,341,0.0,10.0,35,0.00,,,0.00,weatherlink.com 1.10,2013-04-02 23:49:00,
2013-04-02 20:04:00,39.1,14.0,30.11,NNW,329,4.0,13.0,36,0.00,,,0.00,weatherlink.com 1.10,2013-04-03 00:04:00,
2013-04-02 20:19:00,38.6,15.0,30.12,WNW,296,3.0,9.0,38,0.00,,,0.00,weatherlink.com 1.10,2013-04-03 00:19:00,
2013-04-02 20:34:00,38.0,15.0,30.12,NW,309,5.0,6.0,39,0.00,,,0.00,weatherlink.com 1.10,2013-04-03 00:34:00,
2013-04-02 20:49:00,37.6,15.0,30.13,WNW,288,3.0,8.0,40,0.00,,,0.00,weatherlink.com 1.10,2013-04-03 00:49:00,
2013-04-02 21:05:00,36.9,16.0,30.14,NW,319,4.0,4.0,42,0.00,,,0.00,weatherlink.com 1.10,2013-04-03 01:05:00,
2013-04-02 21:34:00,36.6,16.0,30.15,WNW,289,0.0,3.0,43,0.00,,,0.00,weatherlink.com 1.10,2013-04-03 01:34:00,
2013-04-02 21:49:00,35.9,17.0,30.15,West,266,1.0,3.0,46,0.00,,,0.00,weatherlink.com 1.10,2013-04-03 01:49:00,
2013-04-02 22:04:00,35.3,17.0,30.15,West,263,3.0,6.0,47,0.00,,,0.00,weatherlink.com 1.10,2013-04-03 02:04:00,
2013-04-02 22:34:00,35.6,16.0,30.16,West,265,1.0,6.0,44,0.00,,,0.00,weatherlink.com 1.10,2013-04-03 02:34:00,
2013-04-02 22:49:00,35.9,16.0,30.16,West,269,4.0,6.0,44,0.00,,,0.00,weatherlink.com 1.10,2013-04-03 02:49:00,
2013-04-02 23:04:00,35.7,16.0,30.16,WSW,249,0.0,8.0,44,0.00,,,0.00,weatherlink.com 1.10,2013-04-03 03:04:00,
2013-04-02 23:19:00,35.3,16.0,30.16,West,275,1.0,3.0,45,0.00,,,0.00,weatherlink.com 1.10,2013-04-03 03:19:00,
2013-04-02 23:34:00,35.1,16.0,30.16,NW,306,1.0,7.0,45,0.00,,,0.00,weatherlink.com 1.10,2013-04-03 03:34:00,
2013-04-02 23:49:00,35.1,16.0,30.16,West,268,3.0,7.0,45,0.00,,,0.00,weatherlink.com 1.10,2013-04-03 03:49:00,